Time,TemperatureF,DewpointF,PressureIn,WindDirection,WindDirectionDegrees,WindSpeedMPH,WindSpeedGustMPH,Humidity,HourlyPrecipIn,Conditions,Clouds,dailyrainin,SolarRadiationWatts/m^2,SoftwareType,DateUTC
2013-04-17 00:02:00,44.0,36.0,-100.00,ENE,78,7.0,10.0,72,0.00,,,0.17,0.000000,,2013-04-17 05:02:00,
2013-04-17 00:32:00,44.0,36.0,-100.00,NE,56,5.0,10.0,72,0.00,,,0.14,0.000000,,2013-04-17 05:32:00,
2013-04-17 00:43:00,44.0,36.0,-100.00,NE,56,5.0,10.0,72,0.00,,,0.14,0.000000,,2013-04-17 05:43:00,
2013-04-17 00:52:00,44.0,36.0,-100.00,NE,56,5.0,10.0,72,0.00,,,0.14,0.000000,,2013-04-17 05:52:00,
2013-04-17 01:02:00,44.0,36.0,-100.00,NE,56,5.0,10.0,72,0.00,,,0.14,0.000000,,2013-04-17 06:02:00,
2013-04-17 01:32:00,44.0,33.0,-100.00,ENE,64,7.0,10.0,65,0.00,,,0.14,0.000000,,2013-04-17 06:32:00,
2013-04-17 01:42:00,44.0,33.0,-100.00,ENE,64,7.0,10.0,65,0.00,,,0.14,0.000000,,2013-04-17 06:42:00,
2013-04-17 01:52:00,44.0,33.0,-100.00,ENE,64,7.0,10.0,65,0.00,,,0.14,0.000000,,2013-04-17 06:52:00,
2013-04-17 02:02:00,44.0,33.0,-100.00,ENE,64,7.0,10.0,65,0.00,,,0.14,0.000000,,2013-04-17 07:02:00,
2013-04-17 02:32:00,45.0,34.0,-100.00,NE,48,6.0,9.0,64,0.00,,,0.12,0.000000,,2013-04-17 07:32:00,
2013-04-17 02:42:00,45.0,34.0,-100.00,NE,48,6.0,9.0,64,0.00,,,0.12,0.000000,,2013-04-17 07:42:00,
2013-04-17 02:52:00,45.0,34.0,-100.00,NE,48,6.0,9.0,64,0.00,,,0.12,0.000000,,2013-04-17 07:52:00,
2013-04-17 03:02:00,45.0,34.0,-100.00,NE,48,6.0,9.0,64,0.00,,,0.12,0.000000,,2013-04-17 08:02:00,
2013-04-17 03:33:00,44.0,32.0,-100.00,NE,52,8.0,12.0,62,0.00,,,0.05,0.000000,,2013-04-17 08:33:00,
2013-04-17 03:42:00,44.0,32.0,-100.00,NE,52,8.0,12.0,62,0.00,,,0.05,0.000000,,2013-04-17 08:42:00,
2013-04-17 03:52:00,44.0,32.0,-100.00,NE,52,8.0,12.0,62,0.00,,,0.05,0.000000,,2013-04-17 08:52:00,
2013-04-17 04:02:00,44.0,32.0,-100.00,NE,52,8.0,12.0,62,0.00,,,0.05,0.000000,,2013-04-17 09:02:00,
2013-04-17 04:33:00,44.0,34.0,-100.00,ENE,64,9.0,16.0,68,0.00,,,0.01,0.000000,,2013-04-17 09:33:00,
2013-04-17 04:42:00,44.0,34.0,-100.00,ENE,64,9.0,16.0,68,0.00,,,0.01,0.000000,,2013-04-17 09:42:00,
2013-04-17 04:52:00,44.0,34.0,-100.00,ENE,64,9.0,16.0,68,0.00,,,0.01,0.000000,,2013-04-17 09:52:00,
2013-04-17 05:02:00,44.0,34.0,-100.00,ENE,64,9.0,16.0,68,0.00,,,0.01,0.000000,,2013-04-17 10:02:00,
2013-04-17 05:33:00,44.0,35.0,-100.00,ENE,68,9.0,13.0,71,0.00,,,0.01,0.000000,,2013-04-17 10:33:00,
2013-04-17 05:43:00,44.0,35.0,-100.00,ENE,68,9.0,13.0,71,0.00,,,0.01,0.000000,,2013-04-17 10:43:00,
2013-04-17 05:53:00,44.0,35.0,-100.00,ENE,68,9.0,13.0,71,0.00,,,0.01,0.000000,,2013-04-17 10:53:00,
2013-04-17 06:02:00,44.0,35.0,-100.00,ENE,68,9.0,13.0,71,0.00,,,0.01,0.000000,,2013-04-17 11:02:00,
2013-04-17 06:32:00,44.0,36.0,-100.00,ENE,63,8.0,12.0,72,0.00,,,0.01,1.000000,,2013-04-17 11:32:00,
2013-04-17 06:42:00,44.0,36.0,-100.00,ENE,63,8.0,12.0,72,0.00,,,0.01,1.000000,,2013-04-17 11:42:00,
2013-04-17 06:52:00,44.0,36.0,-100.00,ENE,63,8.0,12.0,72,0.00,,,0.01,1.000000,,2013-04-17 11:52:00,
2013-04-17 07:02:00,44.0,36.0,-100.00,ENE,63,8.0,12.0,72,0.00,,,0.01,1.000000,,2013-04-17 12:02:00,
2013-04-17 07:32:00,44.0,36.0,-100.00,East,89,6.0,10.0,74,0.00,,,0.01,20.000000,,2013-04-17 12:32:00,
2013-04-17 07:42:00,44.0,36.0,-100.00,East,89,6.0,10.0,74,0.00,,,0.01,20.000000,,2013-04-17 12:42:00,
2013-04-17 07:52:00,44.0,36.0,-100.00,East,89,6.0,10.0,74,0.00,,,0.01,20.000000,,2013-04-17 12:52:00,
2013-04-17 08:02:00,44.0,36.0,-100.00,East,89,6.0,10.0,74,0.00,,,0.01,20.000000,,2013-04-17 13:02:00,
2013-04-17 08:32:00,46.0,37.0,-100.00,East,83,9.0,11.0,71,0.00,,,0.01,50.000000,,2013-04-17 13:32:00,
2013-04-17 08:42:00,46.0,37.0,-100.00,East,83,9.0,11.0,71,0.00,,,0.01,50.000000,,2013-04-17 13:42:00,
2013-04-17 08:52:00,46.0,37.0,-100.00,East,83,9.0,11.0,71,0.00,,,0.01,50.000000,,2013-04-17 13:52:00,
2013-04-17 09:02:00,46.0,37.0,-100.00,East,83,9.0,11.0,71,0.00,,,0.01,50.000000,,2013-04-17 14:02:00,
2013-04-17 09:32:00,46.0,39.0,-100.00,ENE,66,7.0,10.0,75,0.00,,,0.01,44.000000,,2013-04-17 14:32:00,
2013-04-17 09:43:00,46.0,39.0,-100.00,ENE,66,7.0,10.0,75,0.00,,,0.01,44.000000,,2013-04-17 14:43:00,
2013-04-17 09:52:00,46.0,39.0,-100.00,ENE,66,7.0,10.0,75,0.00,,,0.01,44.000000,,2013-04-17 14:52:00,
2013-04-17 10:02:00,46.0,39.0,-100.00,ENE,66,7.0,10.0,75,0.00,,,0.01,44.000000,,2013-04-17 15:02:00,
2013-04-17 10:33:00,48.0,40.0,-100.00,NE,56,9.0,11.0,73,0.00,,,0.01,64.000000,,2013-04-17 15:33:00,
2013-04-17 10:43:00,48.0,40.0,-100.00,NE,56,9.0,11.0,73,0.00,,,0.01,64.000000,,2013-04-17 15:43:00,
2013-04-17 10:53:00,48.0,40.0,-100.00,NE,56,9.0,11.0,73,0.00,,,0.01,64.000000,,2013-04-17 15:53:00,
2013-04-17 11:03:00,48.0,40.0,-100.00,NE,56,9.0,11.0,73,0.00,,,0.01,64.000000,,2013-04-17 16:03:00,
2013-04-17 11:32:00,49.0,41.0,-100.00,East,92,10.0,15.0,75,0.00,,,0.01,127.000000,,2013-04-17 16:32:00,
2013-04-17 11:42:00,49.0,41.0,-100.00,East,92,10.0,15.0,75,0.00,,,0.01,127.000000,,2013-04-17 16:42:00,
2013-04-17 11:52:00,49.0,41.0,-100.00,East,92,10.0,15.0,75,0.00,,,0.01,127.000000,,2013-04-17 16:52:00,
2013-04-17 12:02:00,49.0,41.0,-100.00,East,92,10.0,15.0,75,0.00,,,0.01,127.000000,,2013-04-17 17:02:00,
2013-04-17 12:33:00,51.0,44.0,-100.00,ESE,106,11.0,17.0,76,0.00,,,0.01,161.000000,,2013-04-17 17:33:00,
2013-04-17 12:42:00,51.0,44.0,-100.00,ESE,106,11.0,17.0,76,0.00,,,0.01,161.000000,,2013-04-17 17:42:00,
2013-04-17 12:52:00,51.0,44.0,-100.00,ESE,106,11.0,17.0,76,0.00,,,0.01,161.000000,,2013-04-17 17:52:00,
2013-04-17 13:02:00,51.0,44.0,-100.00,ESE,106,11.0,17.0,76,0.00,,,0.01,161.000000,,2013-04-17 18:02:00,
2013-04-17 13:33:00,51.0,45.0,-100.00,East,98,10.0,13.0,81,0.00,,,0.01,105.000000,,2013-04-17 18:33:00,
2013-04-17 13:42:00,51.0,45.0,-100.00,East,98,10.0,13.0,81,0.00,,,0.01,105.000000,,2013-04-17 18:42:00,
2013-04-17 13:52:00,51.0,45.0,-100.00,East,98,10.0,13.0,81,0.00,,,0.01,105.000000,,2013-04-17 18:52:00,
2013-04-17 14:02:00,51.0,45.0,-100.00,East,98,10.0,13.0,81,0.00,,,0.01,105.000000,,2013-04-17 19:02:00,
2013-04-17 14:32:00,52.0,47.0,-100.00,ESE,114,11.0,13.0,84,0.00,,,0.01,64.000000,,2013-04-17 19:32:00,
2013-04-17 14:42:00,52.0,47.0,-100.00,ESE,114,11.0,13.0,84,0.00,,,0.01,64.000000,,2013-04-17 19:42:00,
2013-04-17 14:52:00,52.0,47.0,-100.00,ESE,114,11.0,13.0,84,0.00,,,0.01,64.000000,,2013-04-17 19:52:00,
2013-04-17 15:02:00,52.0,47.0,-100.00,ESE,114,11.0,13.0,84,0.00,,,0.01,64.000000,,2013-04-17 20:02:00,
2013-04-17 15:33:00,53.0,49.0,-100.00,ESE,114,12.0,18.0,87,0.00,,,0.00,84.000000,,2013-04-17 20:33:00,
2013-04-17 15:42:00,53.0,49.0,-100.00,ESE,114,12.0,18.0,87,0.00,,,0.00,84.000000,,2013-04-17 20:42:00,
2013-04-17 15:52:00,53.0,49.0,-100.00,ESE,114,12.0,18.0,87,0.00,,,0.00,84.000000,,2013-04-17 20:52:00,
2013-04-17 16:02:00,53.0,49.0,-100.00,ESE,114,12.0,18.0,87,0.00,,,0.00,84.000000,,2013-04-17 21:02:00,
2013-04-17 16:33:00,46.0,45.0,-100.00,NNE,14,11.0,16.0,97,0.40,,,0.40,15.000000,,2013-04-17 21:33:00,
2013-04-17 16:43:00,46.0,45.0,-100.00,NNE,14,11.0,16.0,97,0.40,,,0.40,15.000000,,2013-04-17 21:43:00,
2013-04-17 16:53:00,46.0,45.0,-100.00,NNE,14,11.0,16.0,97,0.40,,,0.40,15.000000,,2013-04-17 21:53:00,
2013-04-17 17:02:00,46.0,45.0,-100.00,NNE,14,11.0,16.0,97,0.40,,,0.40,15.000000,,2013-04-17 22:02:00,
2013-04-17 17:33:00,45.0,43.0,-100.00,NE,45,17.0,28.0,93,0.02,,,0.42,15.000000,,2013-04-17 22:33:00,
2013-04-17 17:43:00,45.0,43.0,-100.00,NE,45,17.0,28.0,93,0.02,,,0.42,15.000000,,2013-04-17 22:43:00,
2013-04-17 17:53:00,45.0,43.0,-100.00,NE,45,17.0,28.0,93,0.02,,,0.42,15.000000,,2013-04-17 22:53:00,
2013-04-17 18:02:00,45.0,43.0,-100.00,NE,45,17.0,28.0,93,0.02,,,0.42,15.000000,,2013-04-17 23:02:00,
2013-04-17 18:32:00,47.0,46.0,-100.00,ENE,74,11.0,14.0,96,0.12,,,0.54,17.000000,,2013-04-17 23:32:00,
2013-04-17 18:42:00,47.0,46.0,-100.00,ENE,74,11.0,14.0,96,0.12,,,0.54,17.000000,,2013-04-17 23:42:00,
2013-04-17 18:52:00,47.0,46.0,-100.00,ENE,74,11.0,14.0,96,0.12,,,0.54,17.000000,,2013-04-17 23:52:00,
2013-04-17 19:02:00,47.0,46.0,-100.00,ENE,74,11.0,14.0,96,0.12,,,0.54,17.000000,,2013-04-18 00:02:00,
2013-04-17 19:32:00,48.0,47.0,-100.00,East,89,7.0,11.0,95,0.01,,,0.55,9.000000,,2013-04-18 00:32:00,
2013-04-17 19:42:00,48.0,47.0,-100.00,East,89,7.0,11.0,95,0.01,,,0.55,9.000000,,2013-04-18 00:42:00,
2013-04-17 19:52:00,48.0,47.0,-100.00,East,89,7.0,11.0,95,0.01,,,0.55,9.000000,,2013-04-18 00:52:00,
2013-04-17 20:02:00,48.0,47.0,-100.00,East,89,7.0,11.0,95,0.01,,,0.55,9.000000,,2013-04-18 01:02:00,
2013-04-17 20:32:00,49.0,48.0,-100.00,NNW,335,7.0,12.0,95,0.09,,,0.64,0.000000,,2013-04-18 01:32:00,
2013-04-17 20:42:00,49.0,48.0,-100.00,NNW,335,7.0,12.0,95,0.09,,,0.64,0.000000,,2013-04-18 01:42:00,
2013-04-17 20:52:00,49.0,48.0,-100.00,NNW,335,7.0,12.0,95,0.09,,,0.64,0.000000,,2013-04-18 01:52:00,
2013-04-17 21:02:00,49.0,48.0,-100.00,NNW,335,7.0,12.0,95,0.09,,,0.64,0.000000,,2013-04-18 02:02:00,
2013-04-17 21:32:00,49.0,48.0,-100.00,SE,131,9.0,15.0,95,0.00,,,0.64,0.000000,,2013-04-18 02:32:00,
2013-04-17 21:42:00,49.0,48.0,-100.00,SE,131,9.0,15.0,95,0.00,,,0.64,0.000000,,2013-04-18 02:42:00,
2013-04-17 21:52:00,49.0,48.0,-100.00,SE,131,9.0,15.0,95,0.00,,,0.64,0.000000,,2013-04-18 02:52:00,
2013-04-17 22:02:00,49.0,48.0,-100.00,SE,131,9.0,15.0,95,0.00,,,0.64,0.000000,,2013-04-18 03:02:00,
2013-04-17 22:33:00,50.0,49.0,-100.00,ESE,119,7.0,10.0,96,0.02,,,0.66,0.000000,,2013-04-18 03:33:00,
2013-04-17 22:43:00,50.0,49.0,-100.00,ESE,119,7.0,10.0,96,0.02,,,0.66,0.000000,,2013-04-18 03:43:00,
2013-04-17 22:53:00,50.0,49.0,-100.00,ESE,119,7.0,10.0,96,0.02,,,0.66,0.000000,,2013-04-18 03:53:00,
2013-04-17 23:03:00,50.0,49.0,-100.00,ESE,119,7.0,10.0,96,0.02,,,0.66,0.000000,,2013-04-18 04:03:00,
2013-04-17 23:33:00,52.0,51.0,-100.00,North,357,4.0,5.0,98,0.16,,,-99.99,0.000000,,2013-04-18 04:33:00,
2013-04-17 23:43:00,52.0,51.0,-100.00,North,357,4.0,5.0,98,0.16,,,-99.99,0.000000,,2013-04-18 04:43:00,
2013-04-17 23:53:00,52.0,51.0,-100.00,North,357,4.0,5.0,98,0.16,,,-99.99,0.000000,,2013-04-18 04:53:00,